STARLINK-4779 (53864 NORAD) Tracking and Keplerian Element Data

This shows tracking and keplerian element data for the satellite.

Feedback or suggestion? Click here.




ElementValue
Catalog53864
NameSTARLINK-4779
Epoch Orbit1053
Epoch Day325.33334491
Epoch Year2022
RAAN305.5479
Inclination53.2141
Eccentricity0.0004129
Argument of Perigee5.2053
Mean Anonmoly68.4086
Mean Motion15.73190803
Decay Rate0.00045012
L11 53864U 22114AY 22325.33334491 .00045012 00000+0 32343-3 0 9999
L22 53864 53.2141 305.5479 0004129 5.2053 68.4086 15.73190803 10536



Live tracking and technical data element details for STARLINK-4779 (NORAD 53864). STARLINK-4779 can be tracked NOW for your location showing map with azimuth and elevation plus other details from your city location.







IsCatalogInMostPopularTable: catalog: 53864, numindb: 1
Update: records affected: 1



GetName: 53864 STARLINK-4779

Hit Count: updated at: Thu, 08 Dec 2022 09:46:17 GMT